Regional Weather Roundup
Issued by NWS

Home | Current Version | Previous Version | Text Only | Print | Product List | Glossary On
Versions: 1 2 3 4 5 6 7 8 9 10 11 12 13 14 15 16 17 18 19 20 21 22 23 24 25 26 27 28 29 30 31 32 33 34 35 36 37 38 39 40 41 42 43 44 45 46 47 48 49 50
000
ASUS43 KIND 222309
RWRIN

WEATHER ROUNDUP FOR INDIANA
NATIONAL WEATHER SERVICE INDIANAPOLIS IN
700 PM EDT SUN OCT 22 2017

NOTE: "FAIR" INDICATES FEW OR NO CLOUDS BELOW 12,000 FEET WITH NO
SIGNIFICANT WEATHER AND/OR OBSTRUCTIONS TO VISIBILITY.

* - STATION DOES NOT REPORT WEATHER SUCH AS PRECIPITATION OR FOG.

+ - STATION NOT QUALITY CONTROLLED BY THE NATIONAL WEATHER SERVICE.
    USE DATA WITH CAUTION...ESPECIALLY DEWPOINT AND RELATIVE
    HUMIDITY OBSERVATIONS.

INZ001>003-010>013-019-020-230000-
NORTHWEST INDIANA

CITY           SKY/WX    TMP DP  RH WIND       PRES   REMARKS
GARY /AIRPORT/ LGT RAIN  54  52  94 NW15G30   30.04R
KNOX *+        CLOUDY    64  63  94 S6        29.97S
LA PORTE +     DRIZZLE   62  60  93 NW14      29.99R
MICHIGAN CITY+ HVY RAIN  55  55 100 NW6       30.02R
MONTICELLO +   CLOUDY    71  59  66 CALM      29.97S
RENSSELAER +   CLOUDY    63  55  77 W12G20    29.99R
VALPARAISO     CLOUDY    56  54  93 N13G20    30.01R

$$

LMZ046-743>745-230000-
SOUTHERN LAKE MICHIGAN

STATION/POSITION TIME  TEMP    WIND        PRES    WAVE
                       AIR SEA DIR/SP/G            HT
                 (UTC) (F)     (DEG/KT/KT) (MB)    (FT)
BURNS HARBOR     2240   54     340/ 18/ 23 1016.9R
MICHIGAN CITY    2240   55     330/ 21/ 24   N/A
5NW MICH CITY    2300   56 58  350/ 19/ 23   N/A     4

$$

INZ004-005-014>016-021>024-230000-
NORTH CENTRAL INDIANA

CITY           SKY/WX    TMP DP  RH WIND       PRES   REMARKS
GOSHEN         CLOUDY    73  55  53 S15       29.98S
LOGANSPORT +   CLOUDY    72  55  56 S14       29.99S
PERU/GRISSOM   CLOUDY    73  58  59 S14       30.00
SOUTH BEND     CLOUDY    65  64  97 SW6       29.99R
WARSAW +       CLOUDY    72  57  60 S7        30.00R

$$

INZ006>009-017-018-025>027-230000-
NORTHEAST INDIANA

CITY           SKY/WX    TMP DP  RH WIND       PRES   REMARKS
AUBURN +       MOCLDY    72  54  53 CALM      30.03R
FORT WAYNE     MOCLDY    74  55  51 S12       30.03R
HUNTINGTON +   MOCLDY    73  56  54 S9        30.02R
KENDALLVILLE + CLOUDY    73  57  58 S8        30.02R

$$

INZ028-029-035-036-043>045-051>053-230000-
WEST CENTRAL INDIANA

CITY           SKY/WX    TMP DP  RH WIND       PRES   REMARKS
CRAWFORDSVL +  CLOUDY    70  57  64 S10       29.98F
GREENCASTLE +  CLOUDY    70  55  60 S9        30.00F
LAFAYETTE      CLOUDY    74  59  59 S8G17     29.96S
TERRE HAUTE    CLOUDY    73  58  59 SE10      29.97F

$$

INZ030>032-037>040-046>048-054>057-064-065-230000-
CENTRAL INDIANA

CITY           SKY/WX    TMP DP  RH WIND       PRES   REMARKS
CP ATTERBURY + CLOUDY    70  55  60 SE8       30.04S
COLUMBUS       MOCLDY    70  50  49 SE9       30.04F
FISHERS *+     CLOUDY    70  61  73 S14G23    30.02
FRANKFORT +    CLOUDY    75  60  60 S7        30.01S
GREENWOOD *+   PTCLDY    74  59  58 S10G16    30.03F
INDIANAPOLIS   CLOUDY    72  57  59 SE14      30.01F
-EAGLE CREEK   CLOUDY    73  56  54 S7G18     30.01S
KOKOMO +       CLOUDY    73  58  59 S14       30.01S
MARION +       CLOUDY    72  57  60 S12       30.02F
MT COMFORT *+  CLOUDY    70  61  73 S8        30.04S
SHELBYVILLE    CLOUDY    72  54  53 SE13      30.03F
ZIONSVILLE +   MOCLDY    71  57  61 S12G20    30.02S

$$

INZ033-034-041-042-049-050-058-059-230000-
EAST CENTRAL INDIANA

CITY           SKY/WX    TMP DP  RH WIND       PRES   REMARKS
MUNCIE         CLOUDY    73  55  53 S10       30.04R
RICHMOND +     CLOUDY    64  52  63 SE5       30.09F

$$

INZ060-061-067>069-081>083-085>088-230000-
SOUTHWEST INDIANA

CITY           SKY/WX    TMP DP  RH WIND       PRES   REMARKS
EVANSVILLE     CLOUDY    75  59  57 SE7       29.97S
HUNTINGBURG +  CLOUDY    73  60  63 SE9       29.99F
WASHINGTON +   MOCLDY    73  56  54 SE7       29.97F

$$

INZ062-063-066-070>080-084-089>092-230000-
SOUTH CENTRAL AND SOUTHEAST INDIANA

CITY           SKY/WX    TMP DP  RH WIND       PRES   REMARKS
BEDFORD +      PTCLDY    72  55  56 SE6       30.01S
BLOOMINGTON    CLOUDY    73  56  54 SE9       30.01F
MADISON *+     PTCLDY    70  52  52 E5        30.08S
NORTH VERNON + CLOUDY    70  54  56 SE6       30.06F
SEYMOUR +      MOCLDY    72  55  56 SE7       30.03F

$$




USA.gov is the U.S. government's official web portal to all federal, state and local government web resources and services.